GFSWCAN_con_3kmhel_159.txt.gz
Helicity
-2 6 16 23 25 33 12 5 1 -3 -10 -19 -20 -14 -13 3 20 94 164 160 184 198 186 176 174 178 202 166 130 100 53 64 71 44 -29 111 113 95 70 65 54 78 86 114 97 103 78 105 141 145 108 116 67 89
0 18 9 -5 -9 -12 -18 -23 -24 -24 -22 -26 -31 -34 -31 -30 -32 -33 95 142 150 141 118 135 167 116 127 126 117 107 88 45 57 34 -42 27 40 89 89 69 105 75 85 82 57 69 96 76 59 37 40 70 61 105
-15 -8 -11 -20 -26 -24 -20 -19 -27 -25 -29 -37 -41 -37 -31 -36 -40 -51 -51 105 84 -58 61 60 80 84 64 99 125 95 79 52 51 36 -18 -87 28 120 90 79 66 48 71 73 53 62 82 95 105 64 64 121 157 160
-16 -17 -19 -20 -18 -15 -16 -22 -28 -27 -28 -30 -32 -36 -44 -45 -40 -40 -25 62 72 -72 -8 -56 2 68 64 74 58 43 32 46 40 30 14 -25 -1 68 92 63 22 52 68 24 75 49 53 83 49 105 180 226 192 160
-14 -14 -15 -12 -18 -22 -15 -14 17 32 50 62 60 65 85 95 74 -9 -52 -52 112 87 38 96 0 -8 65 139 92 56 33 25 -8 3 -63 -26 38 16 40 38 5 60 82 47 35 38 103 94 107 124 195 165 135 159
-2 -1 -5 -10 11 28 47 69 134 99 8 4 24 14 -12 -7 16 105 136 23 69 70 -97 -26 -31 -5 3 40 71 24 23 40 29 16 -9 -35 66 25 -8 -13 -8 -25 20 54 119 69 58 131 149 163 211 142 136 142
12 3 12 32 44 75 139 32 18 33 42 16 31 42 13 -5 -48 169 115 60 313 174 53 -81 -60 6 28 85 88 67 41 68 52 33 18 43 0 6 -16 -22 11 -7 19 58 207 217 189 185 195 195 160 128 158 157
17 28 49 54 112 105 17 19 8 -2 93 29 46 59 5 -4 147 103 92 85 312 306 110 74 17 25 46 79 79 66 44 48 32 49 21 39 22 -15 -72 -43 -42 -4 51 107 176 91 176 317 281 174 157 132 158 137
43 67 75 174 67 30 44 75 85 26 48 72 55 43 44 278 191 120 91 58 184 247 175 80 31 44 38 77 69 75 40 39 50 32 39 18 -34 -72 -52 -74 -46 138 137 185 226 187 305 311 194 128 105 115 149 93
60 99 195 18 41 48 84 72 -12 -5 47 44 275 261 283 233 239 194 211 138 114 144 121 -14 132 70 77 34 52 71 47 104 -19 -5 29 -77 -84 -41 -21 -10 3 126 228 327 337 251 285 220 117 81 69 86 81 73
138 10 1 38 49 69 39 80 61 58 40 84 252 232 130 198 325 237 76 44 -32 -60 67 77 61 81 112 75 61 64 9 6 -41 -51 -55 -73 -61 -14 2 29 157 192 190 201 95 161 129 136 147 143 92 66 67 80
-5 -1 37 42 53 67 100 98 194 52 88 140 222 274 290 143 131 17 3 13 -14 1 -26 29 61 59 52 78 39 27 -1 -14 -47 -65 -58 -37 -26 -10 126 178 194 190 165 129 36 89 83 133 104 118 92 77 90 99
-13 11 39 54 72 100 127 192 255 96 164 203 115 85 51 34 -10 -60 -21 3 -38 -15 -27 15 49 20 48 29 12 -3 -36 -45 -25 -50 -39 -26 21 71 100 141 185 170 148 132 116 145 167 190 131 123 134 116 138 126
5 36 76 85 79 104 169 243 297 170 113 49 113 77 20 -18 -20 -35 -13 -3 21 20 59 141 124 62 73 71 32 13 23 41 25 64 93 29 58 112 93 102 126 106 113 98 120 136 173 165 138 109 117 131 141 129
40 66 89 72 83 91 120 252 187 170 65 80 97 65 24 20 -9 -18 18 74 77 36 178 169 125 82 136 59 72 58 0 -3 4 19 6 -1 106 148 123 124 159 157 168 146 142 141 150 137 122 128 117 113 127 137
62 103 91 87 74 55 109 143 190 135 65 32 79 41 66 86 94 78 83 121 98 165 156 93 69 46 45 40 7 25 19 -15 -6 2 -4 25 136 146 130 129 131 116 116 123 119 126 126 105 116 124 124 99 106 129
68 108 67 78 39 43 79 165 140 139 40 31 49 46 36 60 78 132 161 214 226 146 124 67 15 7 54 25 44 52 28 9 17 -8 22 30 61 106 130 139 142 137 137 136 142 115 107 119 151 150 112 54 92 100
44 69 91 75 20 55 42 44 78 86 98 109 60 108 90 90 111 148 190 210 187 166 130 89 86 54 37 15 18 28 38 31 43 42 58 60 82 96 105 115 123 120 113 106 102 111 122 117 94 87 97 89 123 128
36 54 56 52 35 41 46 44 56 54 85 133 144 145 120 127 163 118 104 136 163 104 88 59 52 55 44 35 28 32 20 2 17 50 81 107 102 113 137 137 124 115 106 92 86 77 69 63 59 90 96 109 128 136
7 29 81 74 57 73 58 88 163 95 109 112 123 122 103 98 118 143 177 162 131 99 90 67 65 62 46 34 40 49 27 31 41 47 118 194 194 166 128 101 92 100 132 137 128 116 111 89 74 82 84 98 136 127
2 62 96 65 85 59 137 167 144 124 105 109 110 93 98 110 112 122 114 110 84 93 73 67 57 57 53 34 36 46 48 33 40 32 92 203 200 165 141 118 110 105 105 87 88 73 65 54 72 79 98 92 106 123
19 34 39 89 117 143 145 139 128 88 78 52 34 41 31 50 65 61 75 86 72 88 57 53 51 49 49 48 40 35 37 52 67 68 86 115 119 110 80 61 69 75 62 64 77 79 55 64 82 89 90 99 121 130
35 30 18 80 106 100 123 139 64 68 20 24 60 56 47 52 41 -2 6 61 29 37 21 13 11 15 9 11 16 28 20 5 12 29 41 59 67 71 72 58 63 82 79 65 63 70 78 89 95 103 113 139 142 144
42 19 23 26 31 17 60 32 65 60 41 26 19 10 5 -5 1 -15 -13 -13 11 32 31 49 20 0 0 12 14 15 24 23 29 28 28 39 48 46 53 64 69 68 69 78 77 85 100 104 121 123 132 133 130 141
38 62 35 47 60 56 29 39 42 32 9 15 7 1 2 5 -4 -9 -14 -14 -5 14 28 55 50 48 28 17 20 17 14 8 12 16 13 34 52 60 56 52 48 48 70 90 90 98 110 128 128 125 124 124 126 127
75 87 61 60 81 71 68 65 59 47 66 58 44 51 59 47 48 38 38 52 46 51 60 57 45 48 71 67 47 45 39 27 30 33 23 25 35 58 67 72 70 55 57 76 120 114 124 124 122 126 120 108 127 134
117 126 120 110 107 109 116 120 121 118 112 88 85 103 103 93 70 75 98 118 90 85 95 81 78 84 83 93 84 77 69 55 51 48 46 40 51 63 85 109 110 101 115 119 116 115 123 128 128 134 126 128 117 124
112 123 116 143 143 154 126 152 156 155 148 139 147 158 127 113 105 107 119 124 130 113 90 94 96 92 84 87 95 92 80 72 65 71 74 80 76 72 73 76 77 88 92 105 125 139 143 152 154 146 128 115 119 116
92 106 96 144 139 159 172 160 157 160 162 159 159 157 157 150 144 148 145 164 140 124 136 131 141 108 85 80 97 108 117 122 95 101 99 87 89 97 91 80 86 90 89 95 106 127 129 144 150 152 139 127 120 127
61 54 58 81 107 123 102 102 118 117 145 134 113 134 152 153 154 129 129 134 138 128 117 107 107 114 116 104 101 107 99 91 86 73 70 75 78 83 90 86 82 83 81 79 88 106 124 156 175 170 151 143 134 133
54 46 49 52 52 63 59 49 75 102 119 131 134 122 120 102 103 125 136 117 102 103 108 118 124 140 140 148 122 95 81 72 100 78 57 48 54 70 92 102 94 87 81 79 89 104 119 125 122 129 129 136 142 148
69 58 49 52 59 67 51 85 87 91 94 100 102 98 108 105 98 92 106 107 101 104 96 86 78 74 89 75 54 41 36 47 57 65 68 67 81 92 97 99 98 93 94 101 106 107 102 111 117 115 122 134 142 150
79 69 68 61 61 51 60 81 94 93 108 92 92 94 93 87 72 74 70 59 59 66 70 67 61 65 79 89 91 81 79 76 86 105 107 107 110 111 106 105 101 99 100 102 107 116 127 137 142 148 159 168 178 184

GFSWCAN_con_3kmhel_162.txt.gz
Helicity
15 0 5 6 11 26 33 24 21 28 22 23 30 37 42 42 44 71 81 50 76 106 102 94 92 104 129 114 87 94 116 97 70 75 88 89 105 111 92 48 42 59 84 86 83 58 71 59 78 65 99 119 90 108
12 2 -4 9 23 24 14 16 21 29 30 25 24 24 27 33 34 60 93 69 64 118 134 130 96 94 61 48 90 110 99 110 85 91 116 133 61 82 89 30 31 46 50 51 80 49 78 60 64 112 85 86 30 64
8 -1 2 -9 -20 -15 -10 -10 -12 -13 -19 -28 -29 -27 -24 -26 -29 -33 -23 69 89 78 68 75 91 44 31 37 44 89 91 56 47 62 83 89 101 103 10 11 42 42 56 62 38 31 15 20 33 50 65 103 26 65
4 -24 -17 -15 -10 -19 -24 -22 -18 -20 -20 -24 -25 -24 -25 -23 -17 -15 -26 0 1 -34 10 -12 33 -2 20 43 33 38 26 46 48 53 39 40 39 23 -21 33 34 39 74 20 -6 2 39 -11 0 -32 -9 122 100 112
-13 -14 -18 -19 -19 -20 -18 -19 -28 -29 -32 -32 -25 -19 -14 -12 -15 -42 -56 -23 20 4 44 3 22 -6 -8 26 26 12 48 37 39 49 40 17 5 -21 -58 0 -16 31 7 -4 4 32 -17 26 9 56 51 86 113 145
-6 -11 -13 -14 -14 -18 -15 -7 -5 6 15 17 13 9 1 -13 -24 -39 -74 -134 -49 -14 11 10 -3 -20 -38 1 -6 16 32 38 48 9 -27 -43 -30 -30 -21 12 13 -2 -7 -17 -21 2 5 42 54 89 116 121 149 135
-8 -2 1 -6 5 30 38 39 17 76 84 81 80 63 66 57 -24 -15 22 -13 165 86 87 -76 -41 -50 7 -39 -22 36 33 64 54 35 6 28 18 -16 -42 33 34 14 -43 -22 46 99 92 103 114 128 142 147 145 125
4 4 15 36 41 47 43 54 48 27 46 16 24 13 -10 -2 68 103 147 49 175 276 77 -63 -58 -66 75 94 121 81 62 42 16 4 8 30 21 14 -24 21 36 33 -43 -41 29 2 62 162 196 158 140 129 123 106
13 29 48 40 46 76 80 34 36 54 74 31 13 19 55 115 82 126 68 75 165 182 130 82 77 -22 47 59 84 78 30 -9 -1 -2 14 35 -16 -62 -28 24 16 -22 -62 -81 73 89 145 141 198 178 109 96 91 106
50 45 45 87 115 55 23 37 13 -14 -1 74 153 184 215 155 235 246 189 119 79 84 114 47 -27 -34 38 61 53 44 8 11 -24 -2 28 -8 -29 -3 -19 -14 -13 -24 -28 159 203 175 181 166 210 114 79 37 63 82
52 122 116 43 35 47 51 26 30 19 -11 141 194 220 102 181 245 230 89 78 -38 -42 54 30 -15 -1 7 26 26 27 11 1 -9 -35 -23 -45 -33 35 22 24 -14 -10 143 107 77 104 143 208 154 93 69 62 81 64
138 59 47 57 64 49 6 49 22 12 25 117 232 267 257 203 140 -43 -14 -30 -63 -12 -27 -3 47 46 57 70 5 3 3 -26 -6 -62 -30 -20 25 2 11 -7 -16 91 115 93 109 102 105 87 48 63 82 85 61 84
84 45 63 75 94 66 39 88 53 61 131 213 199 210 125 19 2 -20 -9 17 -16 -6 5 35 58 62 41 50 3 -11 -30 -34 -54 -46 -7 22 16 -1 30 42 88 96 124 123 115 70 73 58 66 77 109 92 120 108
29 49 77 101 73 118 177 76 165 201 138 61 60 31 44 -17 -4 -13 -28 20 36 8 8 -3 69 1 15 3 0 -18 -24 -32 -23 19 34 17 16 6 36 75 101 139 134 110 76 70 95 140 149 116 93 82 105 93
36 50 72 79 110 103 193 76 214 119 43 35 48 -6 -20 -18 -17 -3 -5 21 44 27 3 18 40 48 55 1 17 4 -34 -9 26 70 70 29 -8 33 59 54 69 92 99 105 108 159 149 167 127 98 80 88 91 121
58 72 53 80 97 75 174 93 48 4 28 60 16 10 -3 -24 -26 -1 5 29 47 82 73 91 49 12 1 15 -9 -6 11 17 -7 1 8 1 0 40 64 57 68 75 100 100 109 99 125 144 115 105 103 83 73 108
77 75 80 75 48 72 233 99 70 -14 -12 53 19 28 42 36 47 65 64 127 141 53 86 51 37 26 36 19 19 39 37 30 15 14 23 30 36 64 85 89 85 92 117 101 127 120 140 150 143 121 101 76 78 90
66 80 78 46 31 76 149 140 84 49 10 26 18 14 34 73 105 177 186 220 160 126 102 80 56 41 43 14 11 44 23 29 19 20 32 49 73 63 64 71 76 76 91 104 109 118 127 113 93 79 93 110 117 115
45 65 55 25 38 32 96 73 106 52 82 106 108 105 89 99 157 166 213 224 176 166 119 84 37 33 24 31 23 11 -2 7 9 26 64 93 104 98 75 81 85 92 100 103 99 99 87 81 72 69 94 102 99 104
7 47 65 60 60 33 37 46 53 62 71 65 68 104 111 116 144 166 192 185 138 111 97 72 62 60 47 36 24 31 36 29 24 19 45 91 94 70 66 66 81 92 111 117 118 107 104 99 81 81 89 94 95 95
14 76 87 63 48 61 41 49 65 85 65 74 100 100 87 105 121 148 133 131 97 72 64 55 46 53 49 36 32 32 26 4 14 17 32 86 91 97 92 93 93 94 88 83 77 75 69 74 90 91 97 102 94 99
39 65 70 66 76 61 64 111 88 83 82 75 78 90 87 103 108 110 109 124 103 87 61 51 41 40 36 31 23 24 23 15 33 74 82 94 90 79 70 64 58 63 62 63 67 74 88 99 92 92 97 102 110 120
15 32 71 101 78 69 101 128 117 120 98 68 25 43 41 36 40 36 25 74 59 54 30 16 15 13 12 6 2 9 21 23 29 46 75 87 99 100 84 70 65 62 68 72 79 86 98 104 96 97 110 118 124 133
31 -4 43 48 69 69 84 74 42 27 13 3 10 11 23 21 11 13 6 -6 4 11 13 21 6 0 4 17 28 35 43 23 14 24 38 47 59 71 73 72 75 82 96 99 98 106 100 95 104 109 111 120 122 126
4 19 19 25 73 90 48 20 26 28 13 31 27 13 6 5 -6 -6 -12 -20 -11 2 21 31 34 33 27 23 20 18 26 27 34 31 27 29 36 38 45 53 61 65 69 65 64 77 89 106 109 112 114 114 115 112
41 53 41 48 69 57 34 29 26 27 34 24 15 20 23 13 14 3 -3 10 11 27 35 38 37 26 34 45 38 38 38 30 29 38 37 31 34 41 40 41 45 44 51 64 80 84 93 98 112 117 114 107 111 123
96 88 78 78 74 74 76 83 91 81 63 48 46 55 59 54 44 41 69 100 87 78 80 79 72 62 57 61 59 58 53 48 48 44 44 43 46 52 55 62 66 72 74 81 92 97 102 112 114 111 113 127 134 138
134 149 121 135 127 136 114 132 129 123 116 116 119 130 115 110 94 94 112 122 125 110 101 102 102 94 85 83 82 77 61 57 45 48 55 64 70 70 69 69 77 88 80 73 78 91 93 98 109 121 134 141 142 136
119 139 135 155 140 140 152 155 150 159 168 172 173 164 159 163 149 153 158 164 156 135 118 107 115 100 90 89 92 94 94 94 74 76 86 86 78 79 81 66 65 70 73 75 63 69 77 92 100 113 114 123 135 136
99 104 105 115 140 150 142 145 133 134 150 158 134 141 163 172 183 189 189 188 174 159 144 132 132 125 116 96 90 93 97 103 103 91 77 71 63 63 67 60 59 65 68 70 74 79 89 97 113 121 120 120 123 120
62 53 55 71 78 82 78 71 73 95 121 143 152 148 148 135 134 148 154 139 125 116 110 108 110 117 119 124 115 103 96 86 90 72 62 50 46 56 68 75 73 70 70 68 65 64 75 84 83 89 91 92 93 98
81 74 55 49 55 51 50 85 90 99 100 104 113 110 107 116 122 109 109 115 104 97 100 99 100 103 102 95 81 69 57 57 70 79 83 71 71 80 87 93 93 88 85 83 81 78 70 72 82 86 90 97 111 128
90 90 85 72 68 49 49 61 84 92 103 106 103 106 113 117 109 93 80 95 86 85 75 65 62 59 65 72 79 74 75 74 85 100 105 105 104 92 83 85 89 94 95 93 90 91 94 97 106 117 129 151 170 183

GFSWCAN_con_3kmhel_165.txt.gz
Helicity
16 20 17 10 15 18 18 14 22 35 34 29 27 25 22 8 37 52 101 67 88 96 117 131 63 114 205 162 101 83 89 76 71 56 45 66 82 71 39 33 65 38 82 97 81 38 57 19 14 30 42 57 121 87
29 21 14 9 14 14 22 28 30 24 29 22 19 25 22 13 3 -19 52 18 32 116 169 140 112 88 22 28 62 64 89 62 47 81 65 63 84 99 85 58 41 62 58 52 62 93 65 72 102 111 130 137 172 156
21 16 6 9 10 16 23 29 35 44 45 40 35 27 26 32 34 9 44 59 62 82 87 80 87 64 60 103 112 121 106 86 95 62 103 117 99 91 88 32 51 43 45 16 26 38 54 48 45 76 52 53 63 88
35 21 9 11 -1 -18 -13 -7 -11 -10 -10 1 11 14 15 8 5 -0 23 47 55 68 32 -6 49 39 25 53 52 84 110 79 100 93 124 105 74 66 31 25 51 24 30 31 62 15 29 41 14 33 77 61 72 114
52 27 -15 -20 -21 -17 -14 -18 -23 -22 -17 -17 -19 -20 -22 -24 -25 -35 -41 -39 -33 -24 10 -1 25 -7 18 29 18 23 21 22 60 93 99 32 47 37 34 43 -8 12 28 -8 -1 8 24 36 50 82 18 59 97 138
28 -15 -13 -16 -19 -21 -19 -24 -23 -27 -27 -30 -31 -29 -32 -26 -20 -36 -51 -48 -28 -21 -32 -23 -28 18 26 18 20 10 16 21 21 57 42 17 40 56 -9 -18 3 28 55 1 2 6 8 48 64 55 54 89 86 140
-23 -8 -3 -7 -9 -12 -17 -20 -9 -12 -12 -14 -16 -7 -4 -20 -35 14 -9 -7 31 10 -33 -25 6 -16 -12 9 -16 13 23 51 43 -12 -27 -4 -4 -17 -15 21 12 113 129 9 53 38 10 20 73 91 135 154 139 142
-15 -5 -1 5 7 13 25 15 26 26 34 69 69 49 74 53 -1 -65 -109 26 -4 139 30 -31 -47 -28 8 6 16 10 66 44 49 30 13 -11 4 -19 -38 38 28 69 66 13 -8 8 14 60 92 138 143 148 162 137
3 5 8 19 35 31 31 24 33 32 29 14 25 37 41 66 110 56 29 120 143 220 107 47 3 -4 31 -2 68 28 73 32 34 -0 -2 8 5 -17 -10 39 50 18 7 -14 -35 23 124 128 82 132 135 133 102 99
17 26 32 37 25 44 55 33 12 25 43 11 64 104 -61 89 130 302 183 168 156 165 67 63 10 50 -8 70 47 58 38 20 8 14 16 -5 -12 -12 12 13 -5 -3 -10 -23 -27 190 214 160 127 112 123 89 70 77
48 44 43 84 68 23 20 40 32 19 75 69 84 36 140 148 188 129 -7 115 -26 -20 57 51 33 65 68 -25 31 -5 3 8 10 2 3 -13 -9 32 58 64 39 3 -18 -24 31 -45 115 139 156 130 104 83 88 76
40 99 78 27 35 63 28 -12 25 38 31 55 138 184 230 136 93 -66 -7 -45 -59 -27 27 12 15 -22 -17 -9 16 -2 17 -6 18 -12 -24 -16 11 32 34 21 2 -13 -3 -8 96 8 112 129 115 116 93 97 75 103
65 67 33 35 79 50 -2 11 63 53 31 95 148 140 119 57 -41 -30 4 41 -2 -25 58 38 21 67 18 -1 16 -5 -9 -17 -41 -17 -7 2 -10 16 26 24 31 58 114 170 153 141 160 144 93 80 119 139 187 194
62 32 35 69 78 63 89 28 -12 79 135 96 142 68 52 34 21 16 -23 -14 79 46 -3 -25 -2 9 11 3 1 -10 -24 -29 -18 -0 30 25 57 13 12 22 40 92 166 211 195 206 168 138 182 165 167 175 163 124
33 26 43 57 57 59 32 -10 84 195 119 33 40 27 8 35 75 94 97 55 52 -4 -66 -16 30 8 6 -4 -5 -6 -25 -17 -5 27 49 70 20 12 16 14 74 122 156 165 162 202 197 207 212 181 144 129 99 138
33 53 13 60 63 97 199 157 96 80 5 4 10 3 -10 -30 -16 -3 29 36 18 -5 1 28 13 -2 -4 -10 -32 -24 -8 15 9 27 -18 1 8 7 11 42 71 94 119 160 167 161 138 153 159 142 132 111 105 121
64 30 16 41 37 159 142 68 2 -19 35 29 4 14 23 16 10 25 19 40 23 28 62 30 14 -4 -12 -19 -3 12 34 60 32 4 2 21 31 40 71 97 90 97 116 109 118 128 158 163 172 156 125 107 113 125
59 44 23 28 13 41 137 82 29 -14 -4 21 24 16 3 61 60 84 101 151 119 64 47 29 58 23 27 15 34 63 63 48 27 20 14 25 42 65 90 94 89 87 103 118 139 143 141 136 131 117 120 120 140 138
36 53 48 8 17 36 61 50 33 4 -1 4 10 41 72 94 148 150 151 174 170 144 116 90 62 47 47 50 43 29 24 13 13 25 13 59 114 115 102 80 81 83 76 78 93 100 112 108 101 95 104 98 108 106
6 28 44 36 44 69 76 69 67 73 66 85 75 67 75 104 107 178 229 194 159 167 116 67 58 39 54 52 30 13 10 17 9 -7 24 62 79 94 92 63 67 80 97 112 124 125 132 121 96 88 89 88 102 97
5 49 50 60 45 45 46 38 45 51 66 69 65 86 99 102 111 130 141 152 107 78 55 76 76 62 58 51 54 46 36 26 30 38 12 24 65 55 37 56 52 58 65 78 83 90 79 77 86 94 99 113 105 103
23 49 46 35 26 45 43 54 66 69 75 61 65 72 97 108 112 98 87 67 52 71 71 55 50 55 51 63 52 48 33 30 34 34 71 47 42 43 44 45 45 55 59 60 67 75 85 93 98 103 101 111 108 113
40 51 47 38 47 60 46 80 82 60 57 65 72 81 76 91 95 107 78 69 72 69 60 53 44 32 30 9 -0 18 34 15 19 45 59 58 59 55 50 45 44 46 53 60 68 73 86 98 98 103 110 107 106 113
4 49 66 58 59 47 74 61 75 91 90 81 66 64 62 51 25 36 41 36 24 22 18 16 7 -2 -6 5 16 22 39 12 8 27 51 50 55 68 61 55 52 56 60 66 73 94 103 97 108 103 101 94 93 101
10 26 26 36 40 60 73 65 58 39 25 -12 -12 -14 -9 -4 -5 1 -6 -11 -7 6 25 24 3 10 9 1 -1 1 23 41 27 20 33 41 42 37 40 47 52 60 65 66 71 76 80 81 71 78 86 79 90 95
27 35 28 24 43 96 80 62 32 19 42 39 29 26 11 -12 -2 -6 -16 -2 4 9 14 27 31 8 12 24 26 30 38 42 45 40 40 39 41 42 42 36 37 36 44 51 58 59 64 71 75 83 85 83 98 108
71 64 51 48 51 15 28 46 62 72 62 43 34 23 17 17 17 20 28 96 62 51 51 52 68 65 53 54 61 66 63 63 64 55 48 48 50 52 53 59 61 74 60 54 62 73 76 83 84 88 99 112 111 110
115 118 108 105 97 94 76 89 93 89 79 79 69 72 71 85 70 83 85 89 110 100 91 90 92 93 91 92 91 92 81 77 56 55 58 59 68 69 71 66 69 68 64 55 56 69 79 86 86 89 91 99 113 114
103 124 124 134 123 119 130 142 122 121 128 134 126 134 138 141 126 134 134 150 144 135 127 119 121 117 116 115 120 122 118 120 112 91 90 83 68 87 79 70 62 62 67 70 62 62 64 77 81 84 85 90 105 114
95 114 114 119 135 131 129 149 124 116 136 148 133 120 122 127 155 181 199 202 198 189 174 165 166 165 162 152 135 126 118 118 120 110 95 89 81 69 67 70 67 65 66 67 74 78 80 79 89 86 85 92 95 103
79 72 71 93 103 99 89 80 75 88 121 150 176 158 150 144 148 172 187 194 195 193 182 180 173 169 157 147 131 116 102 111 125 119 103 77 67 66 74 78 86 83 79 80 81 74 73 62 69 72 76 79 83 80
82 88 87 67 51 51 41 60 61 80 81 93 114 115 119 133 162 153 147 167 151 146 150 142 133 126 116 109 107 107 97 87 86 84 87 85 88 90 93 102 111 115 109 99 91 86 78 63 68 73 80 82 94 93
87 85 91 89 69 55 57 57 53 60 71 82 92 101 126 141 134 121 110 137 141 126 119 107 102 106 106 92 81 74 73 73 78 93 98 107 114 109 97 96 89 87 85 82 79 78 77 82 89 100 121 141 154 185

GFSWCAN_con_3kmhel_168.txt.gz
Helicity
27 28 32 28 22 15 17 22 22 23 25 21 27 28 37 55 68 75 80 51 67 61 86 124 103 69 70 112 133 143 89 98 147 131 121 106 94 93 96 45 76 35 38 47 63 39 27 15 16 28 35 95 93 81
21 29 25 20 19 13 21 24 23 24 31 32 28 29 20 14 -26 -30 40 37 60 85 76 90 108 146 103 117 119 166 178 187 158 104 107 85 59 86 74 48 67 33 52 29 28 15 63 54 38 48 7 -12 73 131
26 32 31 16 12 13 15 17 33 39 32 28 26 18 15 6 -13 -25 40 7 18 45 71 44 34 48 32 91 144 211 171 86 45 41 110 145 108 61 63 66 69 48 44 40 31 33 53 34 100 60 20 97 107 135
17 30 25 10 9 10 10 24 30 36 43 40 33 30 25 14 8 -2 21 18 27 24 41 42 42 49 34 52 42 73 90 70 80 115 120 134 136 127 118 54 48 32 69 27 -43 -58 -25 -2 54 109 88 74 145 130
29 36 30 5 10 -10 -18 -18 -19 -18 -18 -12 14 26 26 21 20 17 32 45 37 42 64 62 77 41 79 64 83 106 119 146 176 195 182 202 178 134 86 48 -46 47 13 -14 -107 -37 -87 31 -2 19 36 78 88 82
38 43 37 -12 -21 -21 -17 -17 -23 -27 -28 -20 -21 -26 -33 -35 -40 -42 -47 -39 -12 -11 -21 -36 -8 -4 -11 -6 51 53 81 99 121 134 165 110 57 91 34 -1 -2 -6 13 -11 -41 -1 4 -4 18 83 83 50 31 115
43 16 -17 -10 -13 -19 -25 -25 -29 -25 -29 -28 -29 -35 -36 -38 -43 -8 -18 -13 1 -44 -83 -67 -53 -33 44 26 25 24 -0 34 45 29 31 25 29 50 -49 -37 14 5 8 9 -4 -32 -31 84 21 47 53 98 210 234
-14 -31 -15 -8 -6 -9 -16 -22 -32 -29 -21 -24 -27 -25 -23 -11 -12 -51 -47 -20 6 59 -43 -51 -34 -8 26 35 52 38 29 23 46 41 15 -9 -5 -30 -39 -37 -11 19 34 47 11 25 2 69 77 152 159 147 177 232
-31 -20 -10 -9 -7 -9 -12 -7 -3 13 33 51 70 73 23 -20 17 -0 -42 -28 41 37 -37 -38 -2 -7 50 22 35 44 48 25 41 29 15 -0 -36 -35 -9 40 70 67 55 32 15 -4 131 148 50 102 154 133 206 280
-12 1 -1 -1 -4 8 25 27 39 55 70 41 12 67 -47 8 93 245 124 59 70 77 -26 11 80 87 7 30 47 71 30 11 -1 -0 -16 -28 5 20 25 15 12 6 18 15 -8 100 124 61 147 137 110 158 203 144
13 16 16 31 41 49 57 41 19 -3 31 101 31 -33 95 83 151 76 79 57 68 7 66 98 98 76 91 99 12 11 -9 -5 14 11 12 8 81 114 137 146 95 41 4 -20 -19 -27 173 152 183 199 157 173 157 68
31 35 56 91 27 13 10 32 11 32 40 29 77 143 133 95 74 78 -24 -18 -26 -1 35 56 104 26 43 39 -9 -8 -4 -14 22 16 9 63 26 -19 -11 24 42 71 122 40 -14 128 178 184 216 208 218 161 82 93
41 72 55 8 8 26 28 -16 46 19 63 67 83 135 101 99 -44 -5 132 38 -0 100 62 72 30 -17 -9 -33 -10 -22 -6 -12 -5 -2 17 7 26 66 55 49 50 57 66 -26 115 311 355 325 261 249 168 136 194 216
49 46 15 11 10 28 12 11 31 48 78 87 148 61 24 -8 -45 -26 5 52 107 127 93 91 15 -6 -5 -17 -3 -10 -28 -35 8 23 31 24 27 35 1 -12 30 47 137 272 375 386 302 218 221 223 197 185 236 214
38 6 9 12 18 16 8 10 31 81 27 41 31 3 23 44 103 86 100 45 54 44 25 -11 -5 -9 -21 -15 -24 -15 -17 -11 -13 8 13 18 6 14 -0 -0 22 64 132 184 211 235 247 247 281 243 204 200 222 206
6 6 -20 -1 32 28 38 32 128 127 87 27 22 19 44 34 29 19 67 78 23 -2 1 -4 2 3 -2 -2 -27 -19 -15 -10 7 15 -3 -31 -8 5 1 8 28 54 89 137 177 224 256 266 234 211 199 186 168 160
23 -3 -40 42 26 91 115 146 86 29 -1 -2 -41 -33 -8 2 3 -8 2 14 16 4 35 33 12 2 -16 -11 -16 -21 8 14 4 -7 -20 -15 -19 -0 16 38 54 80 112 157 194 217 227 190 177 183 170 131 136 132
15 -19 -28 55 26 86 98 58 45 9 -42 -7 32 28 -5 1 7 24 39 47 44 34 14 17 26 3 11 6 20 49 59 34 10 4 8 -4 -0 10 33 56 72 86 98 117 144 159 167 152 151 135 130 144 149 138
43 28 12 -17 -6 25 39 54 22 -59 -38 -44 -42 -16 -0 8 60 75 103 108 150 119 79 64 32 29 54 66 62 37 25 24 19 18 15 21 37 61 93 91 92 91 103 130 172 156 150 126 85 98 108 107 112 115
-0 5 8 4 19 49 27 27 64 43 20 30 38 44 38 38 73 125 129 155 123 120 87 70 71 49 56 47 37 26 6 2 2 8 24 31 52 65 51 58 61 62 45 30 60 51 59 103 91 92 89 85 109 108
2 8 12 24 19 30 33 29 37 43 46 58 62 54 56 44 62 100 153 135 131 114 71 100 91 76 69 62 65 34 21 22 22 34 48 46 38 38 59 16 5 22 43 54 63 80 82 93 94 90 79 99 101 101
20 41 39 37 36 28 31 28 29 41 58 58 60 53 69 65 73 84 75 78 79 75 86 72 72 47 44 52 50 45 22 20 39 42 34 9 -1 1 -2 4 23 33 46 44 60 61 78 86 88 90 96 126 130 123
20 19 25 27 42 45 34 43 43 47 54 51 60 66 62 73 73 64 51 55 47 69 63 46 44 41 32 9 22 42 30 18 39 47 55 55 47 34 21 32 30 32 36 48 52 56 81 86 93 88 114 121 113 111
-22 29 29 34 35 37 37 46 61 55 49 48 75 63 54 66 74 74 53 54 59 59 57 47 27 19 14 21 27 36 54 3 12 25 19 5 22 29 29 38 41 48 45 56 55 83 108 89 85 91 105 90 92 109
2 16 18 18 23 39 39 65 68 58 57 65 57 51 50 44 58 53 25 8 29 32 32 31 22 36 24 11 3 15 37 52 27 25 42 45 45 39 45 50 54 60 58 59 71 84 88 92 81 79 96 88 88 104
21 34 34 23 31 42 61 64 56 53 53 39 13 21 18 10 9 12 9 24 29 27 41 55 54 25 38 42 30 23 35 53 36 43 56 60 46 54 54 45 35 42 39 52 64 62 71 73 66 66 85 80 84 97
68 62 42 46 46 44 49 78 64 55 41 29 25 37 41 15 8 17 30 93 49 65 64 77 85 77 62 52 48 45 43 51 54 47 44 57 69 72 70 75 74 69 56 58 59 65 69 80 81 80 86 92 93 97
118 103 85 75 65 68 38 24 49 58 70 95 78 63 64 58 33 64 76 91 104 110 100 107 112 103 89 81 78 78 69 68 57 52 66 69 74 85 84 79 76 78 80 73 69 74 76 86 89 85 84 87 99 107
79 87 82 88 92 91 92 101 87 105 123 145 142 105 100 97 112 110 114 113 124 151 135 125 129 118 112 113 124 128 135 151 136 113 145 129 96 95 97 87 81 78 78 78 71 72 71 73 75 77 82 85 95 110
80 72 77 77 93 106 112 121 101 102 115 121 122 100 90 89 105 130 165 190 188 212 206 183 174 162 170 146 142 158 163 168 170 160 149 126 93 78 86 96 95 84 73 68 75 87 77 70 80 79 81 81 81 99
67 70 59 59 80 89 82 75 68 67 96 121 159 140 123 104 113 151 183 217 206 191 167 179 212 221 206 213 209 173 156 143 134 125 114 96 95 102 95 85 84 87 87 85 82 83 88 74 67 70 66 68 72 81
87 95 122 94 71 64 37 44 41 60 67 69 103 114 107 96 133 137 157 203 192 213 241 221 176 192 185 157 143 130 108 108 114 124 133 111 96 95 90 95 100 107 110 105 98 89 77 63 60 59 61 66 73 84
70 78 89 112 84 44 65 71 47 54 61 65 66 63 92 144 141 130 115 214 266 212 196 187 161 143 131 128 122 114 113 100 95 99 105 106 109 114 105 106 106 103 107 106 103 92 80 79 82 95 114 159 189 237

GFSWCAN_con_3kmhel_171.txt.gz
Helicity
24 28 30 30 36 34 25 16 16 16 20 21 19 21 38 48 63 112 76 81 141 95 70 17 25 61 31 35 102 123 235 182 182 216 182 151 131 111 133 108 91 63 68 -10 6 93 35 70 12 46 18 8 -11 41
28 26 33 35 32 25 17 12 20 21 26 21 16 29 52 52 37 20 20 -2 16 33 61 53 66 67 125 109 75 96 157 196 142 119 120 135 137 187 207 138 112 73 49 13 27 6 -12 -51 -22 37 -6 -6 -30 47
27 18 37 37 30 23 15 21 26 22 17 19 26 26 20 20 2 -10 30 16 40 45 39 26 26 23 28 65 85 89 121 127 149 154 177 129 151 141 201 112 45 66 24 32 -2 30 38 -16 -6 -24 -18 -10 41 108
26 29 37 36 24 16 16 15 23 31 41 33 28 23 17 -1 -19 -9 29 31 13 26 59 60 44 48 71 44 46 66 79 120 152 144 147 168 161 105 111 123 117 69 72 17 -9 -49 -44 -45 -60 -73 -34 60 153 92
17 15 25 31 13 16 13 11 20 30 30 31 35 31 27 22 18 24 27 20 19 25 32 38 42 54 43 69 68 97 128 145 114 171 180 231 196 209 173 171 109 172 72 71 -4 4 -35 -39 -8 -22 -19 29 75 84
25 27 33 36 12 -4 -7 -7 -6 -15 -21 -19 -21 2 21 24 32 50 36 36 28 49 50 26 43 33 7 14 29 69 74 121 159 138 156 126 157 158 125 117 75 53 5 25 2 13 -20 -49 -46 -32 -21 36 54 166
33 33 38 22 -16 -30 -30 -30 -29 -29 -29 -27 -24 -31 -31 -32 -60 -53 -63 -32 25 40 -31 -22 -17 5 -26 -27 52 69 88 85 83 89 126 148 132 165 75 -144 -40 19 -21 -3 -16 -45 -47 0 -55 32 28 133 268 267
21 33 1 -26 -18 -20 -26 -31 -29 -23 -25 -33 -34 -38 -46 -55 -60 -45 -46 -27 -37 -8 -37 -27 -25 -67 -60 -1 -8 13 60 62 78 70 80 91 60 -39 -118 -69 -38 4 45 37 36 -29 -6 -31 33 66 139 236 283 326
24 -25 -34 -27 -14 -7 -11 -10 -14 -22 -25 -25 -40 3 -32 -29 -14 19 -37 -39 32 -8 -33 -37 -15 -13 59 29 30 32 57 48 58 45 69 34 -39 -59 -36 -1 60 103 40 24 -23 55 18 8 120 156 207 209 244 281
-29 -34 -29 -19 -12 -10 -4 -4 5 27 56 41 19 -22 -22 27 65 160 86 20 -31 -61 -42 51 46 112 71 44 -26 29 56 4 -5 28 8 -19 59 87 76 89 61 29 6 13 130 92 -28 141 172 192 261 220 249 283
-30 -17 -9 -4 -1 13 24 24 26 29 51 -3 -25 -21 43 71 89 41 -4 5 9 0 71 136 224 212 113 67 63 2 -15 -24 32 25 44 97 183 217 209 243 155 113 65 2 -44 -38 75 174 212 177 205 275 254 214
-1 5 12 26 36 50 60 55 44 -17 56 57 39 139 107 71 44 -22 -1 -46 -7 24 102 113 67 111 67 38 42 -27 8 -26 39 4 50 126 73 78 65 48 53 35 37 60 37 16 84 185 187 178 198 280 236 172
25 28 50 72 41 21 8 31 29 69 129 51 10 31 -4 9 -29 18 129 231 195 171 99 130 49 68 41 -16 -28 -34 -4 -11 -27 16 24 47 31 39 47 49 36 34 44 45 33 63 257 274 253 206 223 245 207 180
26 41 45 20 -8 1 28 6 38 102 68 4 4 57 17 20 37 90 53 114 135 119 107 147 113 12 3 -14 -39 -28 -26 -28 54 81 65 17 5 11 8 1 -3 7 48 82 169 341 391 340 250 202 210 226 241 163
38 25 16 1 0 18 4 19 47 25 13 -2 41 37 48 12 15 -16 -32 81 102 40 5 107 54 5 -5 -17 -31 -33 -23 -2 22 18 9 -20 -42 5 1 -7 -4 3 54 121 176 240 265 237 236 233 224 235 217 199
33 8 -7 -14 13 1 18 47 35 48 13 -9 -7 18 19 42 43 26 -3 23 82 1 -14 6 -5 -11 -13 -28 -27 -26 -11 8 -35 -16 -30 -49 -59 -12 -16 -4 5 8 25 65 121 150 182 197 198 237 233 207 163 192
0 1 -34 63 45 11 6 50 84 27 11 20 -4 13 -15 -45 -37 -25 -5 20 33 36 23 9 -13 -3 -20 -16 -19 9 21 9 -42 -60 -57 -56 -61 -38 -16 -5 15 34 56 83 125 160 193 223 235 212 175 129 158 165
14 13 -18 81 15 44 53 43 27 -12 -53 -29 -46 -3 62 42 -12 -39 1 24 31 38 -7 13 12 -9 1 3 25 40 46 16 3 3 -10 -52 -38 -12 -14 -1 36 49 77 108 131 163 164 179 181 129 147 143 162 151
-7 2 -19 54 18 22 32 23 22 -52 -61 -77 -44 -23 -14 -5 -13 6 14 73 76 65 70 63 11 27 37 48 35 9 -4 -10 -20 -19 4 -10 -1 19 38 66 82 82 89 96 105 111 118 119 119 123 119 119 126 125
-16 -22 -22 32 23 36 25 33 39 11 -31 -20 35 42 21 7 6 45 83 97 94 127 78 64 67 54 43 36 19 19 8 17 7 16 47 39 32 39 53 63 53 57 74 94 104 110 124 136 112 85 89 97 103 100
2 6 4 19 20 16 22 26 24 17 31 38 56 50 38 28 30 51 95 131 80 66 78 84 64 57 82 80 65 38 20 9 33 49 34 40 38 39 27 18 -1 -4 5 1 -14 -20 -6 2 35 56 57 73 77 94
17 18 31 18 37 35 23 26 24 27 42 43 52 43 37 40 44 48 35 70 84 76 85 73 69 62 57 50 35 30 14 21 30 31 23 7 -12 -5 -4 -9 -2 20 18 17 34 43 51 63 83 72 69 96 98 102
7 11 26 34 46 50 34 50 42 38 46 48 65 62 44 52 49 59 50 55 52 58 70 73 65 48 41 18 40 50 29 11 33 40 36 33 25 24 23 23 16 18 20 17 20 49 71 83 81 87 106 123 122 134
2 18 13 16 27 39 41 46 41 48 69 61 54 59 65 64 62 62 56 61 63 80 69 52 35 38 41 39 47 47 61 8 22 31 9 19 28 31 30 35 42 41 31 36 56 78 93 90 86 92 110 123 120 130
14 7 13 2 12 26 34 51 77 76 47 55 76 70 57 56 51 47 36 49 69 77 74 72 66 62 43 13 14 22 53 61 21 44 63 39 28 27 35 39 39 34 45 65 70 77 89 94 98 97 106 113 108 120
38 49 45 38 34 32 42 48 44 66 65 69 61 68 46 49 59 38 63 54 72 74 68 87 63 72 91 63 31 30 49 79 34 40 53 52 54 53 44 35 33 45 51 56 67 74 80 86 84 76 86 92 82 98
91 89 71 61 56 50 40 45 55 70 74 73 56 46 35 36 16 30 74 135 96 105 102 115 110 97 82 69 61 58 56 60 55 50 51 65 72 76 75 67 70 61 55 64 72 79 81 97 103 95 92 113 105 105
105 95 91 88 65 71 66 80 81 76 94 104 83 56 50 53 48 72 85 99 114 104 99 96 104 93 85 84 78 77 76 83 62 77 92 90 80 84 83 70 66 69 72 75 73 74 76 83 98 95 99 103 109 117
69 63 41 40 63 65 86 116 128 115 83 88 115 113 103 102 95 86 91 92 103 114 96 115 116 106 114 116 130 140 143 146 106 93 90 122 105 95 95 87 78 71 79 87 81 85 84 82 83 80 77 90 93 120
111 65 57 54 57 67 106 102 94 88 90 95 109 102 82 70 64 93 100 95 98 144 174 162 137 110 107 117 140 182 208 205 207 187 170 150 108 92 89 96 105 110 85 79 89 84 80 75 82 84 93 99 89 104
63 67 65 74 90 102 91 75 67 77 84 100 127 126 112 79 76 113 155 210 232 195 185 217 250 246 246 244 185 162 184 183 180 171 150 130 118 115 103 105 98 92 89 84 83 92 99 92 85 79 72 67 71 83
82 89 113 116 113 109 88 57 33 35 54 58 83 110 101 94 95 95 129 160 194 192 217 189 213 224 222 216 200 187 169 148 141 131 128 108 111 118 106 97 100 103 102 102 105 101 84 71 64 68 80 77 79 87
45 44 57 107 114 105 97 84 65 72 85 67 89 66 78 114 117 112 108 183 252 251 256 229 179 189 213 218 209 173 121 110 106 116 133 129 117 109 105 99 107 107 116 121 127 121 103 104 119 157 205 252 276 266

GFSWCAN_con_3kmhel_174.txt.gz
Helicity
10 17 22 30 31 36 40 29 17 11 18 16 12 13 10 14 54 138 105 107 121 114 47 60 44 48 28 7 33 45 159 406 512 236 202 179 165 129 135 128 133 187 240 178 136 124 111 72 57 46 9 6 -22 29
22 27 27 38 45 47 34 18 17 19 17 18 17 11 16 30 52 76 51 48 73 117 97 35 25 22 -19 78 55 48 151 199 183 223 107 116 139 152 137 118 121 116 163 177 179 89 50 -13 -21 -9 8 -16 -14 -4
29 28 25 38 36 30 22 18 20 21 15 21 25 20 17 27 34 21 29 36 43 43 40 26 41 50 6 13 -0 38 63 25 40 42 79 137 168 153 162 135 129 131 98 117 159 95 45 -7 -33 -7 16 -48 -35 -35
41 27 30 42 39 32 23 21 22 23 25 19 16 14 9 9 19 10 35 11 14 7 36 27 11 29 44 35 33 31 33 96 102 107 117 119 118 127 136 133 122 114 85 63 73 69 12 -61 -50 -12 -22 -19 -39 24
32 26 28 32 31 22 19 16 19 24 34 37 37 34 35 23 17 24 19 13 7 12 9 33 25 32 32 35 46 58 71 87 105 118 154 148 182 212 204 219 233 146 127 153 35 43 14 -20 -2 -2 -17 -10 8 -13
22 25 24 29 30 12 15 10 8 19 13 -0 9 24 32 36 47 37 38 25 34 42 16 1 12 45 53 53 51 58 69 102 138 148 135 163 151 222 286 307 208 132 112 122 50 41 4 -18 56 29 25 26 25 78
26 30 30 34 34 -2 -10 -11 -15 -14 -16 -16 -16 -15 -19 -33 34 -61 -35 32 40 55 50 -35 11 53 66 34 57 60 74 93 117 112 150 173 181 174 97 -124 115 109 89 52 14 5 -2 -1 10 19 12 19 42 99
28 31 33 9 -16 -17 -23 -24 -22 -20 -18 -17 -25 -30 -28 -34 -46 -35 -47 -9 -42 -50 -43 -4 11 -10 13 39 34 25 70 126 151 135 141 120 103 75 9 6 -24 6 13 -1 23 18 26 3 -6 12 46 76 157 194
15 16 -12 -26 -29 -13 -11 -15 -15 -18 -16 -46 -52 -16 -41 -16 32 57 -33 -53 -20 -45 -9 26 16 -6 36 17 33 44 58 91 78 92 75 94 83 100 190 208 193 172 150 118 -7 9 15 -1 -11 -1 111 146 208 213
-8 -25 -29 -30 -18 -5 8 -0 -18 -30 -21 -30 1 -36 13 14 25 81 2 -22 -50 -43 17 58 86 50 67 36 11 -16 9 -4 24 45 77 43 179 266 225 247 197 123 52 10 -37 -15 40 21 17 31 130 170 189 214
-26 -30 -30 -15 -3 1 -4 -3 10 11 -1 -30 -19 8 20 64 45 18 -23 -18 -25 -5 60 104 204 188 108 67 6 -31 -11 9 31 5 72 126 102 25 24 184 260 201 61 20 113 156 103 53 71 139 184 172 239 239
-31 -18 -2 6 14 22 26 33 41 48 23 16 -7 24 109 9 -20 -42 -35 -25 24 14 61 63 43 69 36 61 -42 -23 10 2 71 51 92 108 102 51 54 77 53 14 6 -1 33 76 65 48 105 152 218 267 259 237
3 15 27 31 46 46 46 37 28 7 125 88 -22 9 -12 -6 -10 4 130 131 101 172 137 90 60 55 38 -4 -20 -15 -43 -15 -17 45 57 53 -1 -4 64 41 47 37 23 6 -6 -10 49 132 132 192 211 262 256 236
27 21 38 36 26 31 19 16 21 21 81 9 8 -14 -7 18 28 82 128 89 75 71 41 121 94 11 -18 -21 -24 -14 -31 -17 70 71 53 2 -9 7 12 -4 -6 15 14 20 27 7 56 245 194 154 164 204 238 236
25 31 27 15 18 10 25 4 51 120 43 13 35 -3 28 36 -3 -27 -28 -59 -42 134 30 96 58 8 2 -11 -29 -25 -15 3 19 19 28 22 -23 -46 31 55 35 24 10 14 60 118 179 211 230 205 183 198 205 233
40 40 3 8 28 35 27 41 108 57 49 -12 24 14 -10 -16 1 36 38 2 -4 140 54 29 -7 -5 -7 -18 -22 -17 -8 14 -10 -35 -43 -30 -46 -52 -12 10 23 24 10 24 56 98 135 162 183 199 203 158 152 159
26 8 -0 -8 10 17 70 46 16 66 23 -12 -26 -47 11 10 17 -9 7 7 29 16 4 1 -8 -15 -10 -21 -5 1 21 20 -25 -49 -31 -62 -75 -70 -20 -11 7 19 14 29 52 82 101 125 144 171 139 87 96 88
3 -2 -0 35 4 -33 3 9 35 14 -27 -42 -48 -56 -32 90 57 -10 -42 8 30 16 30 24 42 15 -3 8 6 -16 -17 -26 -47 -68 -59 -51 -44 -28 -17 5 23 28 32 55 65 87 101 118 125 117 97 65 88 92
4 -3 -2 70 4 18 31 26 18 -54 -82 -69 -55 -73 -24 8 10 -12 -26 -18 -20 14 4 1 -41 -38 -16 -17 -43 -6 2 -11 -13 -33 -42 -3 -30 -24 -8 11 35 45 60 68 80 81 79 81 91 84 63 61 76 82
8 8 -10 43 13 28 27 36 42 -36 -46 -39 46 -1 -18 -16 -15 -8 18 41 50 80 -23 -6 -14 -7 -14 57 47 33 42 31 23 27 28 34 22 18 26 41 55 55 57 61 71 84 85 74 83 85 76 72 93 87
19 14 40 55 11 21 35 26 32 44 47 39 51 59 40 41 36 32 41 62 69 60 61 59 54 58 70 81 78 65 49 36 35 47 41 37 28 33 21 15 21 21 23 20 24 36 55 69 79 68 44 63 81 86
26 37 40 30 39 53 38 39 42 41 49 45 51 54 49 50 46 40 46 63 60 57 49 56 64 65 51 57 55 37 25 23 40 39 32 21 6 3 9 -1 18 23 22 14 25 31 20 11 22 37 51 47 69 89
22 32 26 30 48 58 47 68 60 49 60 46 57 60 64 57 42 69 46 47 51 55 67 89 74 62 59 36 56 60 45 31 47 47 20 11 15 14 19 15 13 14 17 18 25 36 38 34 44 52 62 72 79 92
50 29 13 13 21 25 43 50 51 54 64 72 59 66 65 57 72 66 59 62 61 55 81 84 98 75 60 61 71 60 40 21 18 15 19 31 35 26 22 23 21 8 4 19 31 41 47 45 57 73 83 95 101 108
57 23 40 18 27 28 26 30 42 74 74 54 66 63 51 79 78 73 70 73 90 81 78 80 56 59 55 36 45 44 54 27 31 52 42 27 27 32 36 29 29 36 29 49 42 53 61 67 69 75 82 95 102 105
65 65 72 53 50 45 37 32 30 29 55 74 44 65 82 87 73 34 72 72 94 101 103 89 88 118 79 38 41 41 48 43 28 47 46 44 45 35 30 29 33 39 41 44 53 54 62 67 69 72 75 78 85 100
100 106 92 95 90 77 60 50 52 61 59 52 62 89 87 53 19 39 57 85 79 109 104 83 73 84 78 66 56 61 72 70 43 45 54 60 61 64 59 53 57 44 42 52 57 63 62 72 81 81 84 94 106 115
61 69 78 69 85 78 76 81 83 66 83 126 118 84 80 52 41 40 35 63 105 115 113 89 77 85 81 75 66 76 80 85 80 99 103 99 98 90 79 65 56 54 56 62 66 68 71 72 72 80 83 85 83 98
101 105 73 60 56 59 58 68 83 102 106 113 108 97 79 61 32 32 49 74 100 106 102 99 98 103 100 91 91 89 88 84 72 83 82 79 81 77 78 79 82 57 66 76 85 91 92 90 89 80 71 79 80 95
74 99 90 77 88 58 54 57 56 53 56 54 72 87 78 64 46 52 66 78 73 83 81 81 96 107 104 112 123 140 154 149 146 126 152 162 106 87 90 96 88 103 97 90 96 87 88 87 87 88 99 107 106 106
79 101 102 99 112 102 98 106 115 101 86 66 95 87 76 57 64 62 86 100 132 126 143 184 176 145 128 120 117 136 150 162 172 197 193 181 169 156 126 102 95 96 99 87 78 89 81 78 77 76 72 68 66 72
96 89 105 115 115 122 116 91 68 84 83 99 90 116 104 96 75 68 116 125 152 153 141 149 153 152 167 169 149 126 122 148 172 171 168 144 132 122 109 111 108 98 100 107 102 96 84 73 69 67 74 64 76 88
90 83 88 108 114 122 130 148 122 111 136 123 99 90 88 77 79 80 85 121 126 147 164 161 151 158 166 177 150 127 127 142 160 167 159 144 128 119 116 108 99 101 108 109 118 120 130 139 144 158 179 210 235 249